Regional Weather Roundup
Issued by NWS State College, PA

Home | Current Version | Previous Version | Graphics & Text | Print | Product List | Glossary On
Versions: 1 2 3 4 5 6 7 8 9 10 11 12 13 14 15 16 17 18 19 20 21 22 23 24 25 26 27 28 29 30 31 32 33 34 35 36 37 38 39 40 41 42 43 44 45 46 47 48 49 50
000
ASUS41 KCTP 271003
RWRCTP

REGIONAL WEATHER ROUNDUP
NATIONAL WEATHER SERVICE STATE COLLEGE PA
600 AM EDT THU AUG 27 2015

Note: "fair" indicates few or no clouds below 12,000 feet with no
significant weather and/or obstructions to visibility.

* = STATION THAT DOES NOT REPORT PRECIPITATION /E.G. RAIN...SNOW...ETC/
    THUNDER OR FOG.

PAZ002>004-007>009-013>016-020>023-029>032-271100-
WESTERN PENNSYLVANIA

CITY           SKY/WX    TMP DP  RH WIND       PRES   REMARKS
ERIE           CLOUDY    61  57  87 S5        30.12S
MEADVILLE      LGT RAIN  58  56  93 CALM      30.14R FOG
FRANKLIN*      CLOUDY    57  54  88 W3        30.16R
NEW CASTLE     FAIR      59  57  92 CALM      30.15S
BEAVER COUNTY  NOT AVBL
BUTLER*        CLOUDY    57  54  88 CALM      30.16R
PITTSBURGH INT CLOUDY    59  54  83 CALM      30.14R
PITTSBURGH     CLOUDY    59  51  75 W5        30.13S
INDIANA*       CLOUDY    57  55  94 CALM      30.17S
LATROBE        NOT AVBL
WASHINGTON CO* NOT AVBL
$$

PAZ004>006-010>012-017>019-024>028-033>037-041-042-045-046-049>053-271100-
CENTRAL PENNSYLVANIA

CITY           SKY/WX    TMP DP  RH WIND       PRES   REMARKS
BRADFORD       CLOUDY    55  53  93 W6        30.13R
DUBOIS         CLOUDY    58  55  90 W5        30.13S FOG
CLEARFIELD     NOT AVBL
JOHNSTOWN      CLOUDY    54  51  90 W5        30.14S
ALTOONA        PTCLDY    52  49  89 CALM      30.14R
STATE COLLEGE  CLOUDY    59  54  82 CALM      30.12R
WILLIAMSPORT   PTCLDY    59  56  89 NW3       30.08R
SELINSGROVE    MOCLDY    56  54  93 CALM      30.10R
FT INDIANTOWN  CLEAR     61  54  76 NW1       30.08R
CAPITAL CITY   CLEAR     59  53  80 W6        30.09R
HARRISBURG     NOT AVBL
YORK           CLEAR     52  51  97 CALM      30.09S
$$

PAZ038>040-043-044-047-048-054-055-060>062-067>071-271100-
EASTERN PENNSYLVANIA

CITY           SKY/WX    TMP DP  RH WIND       PRES   REMARKS
SCRANTON       PTCLDY    62  53  72 W7        30.08R
MOUNT POCONO   PTCLDY    57  53  86 NW10      30.08R
ALLENTOWN      CLEAR     58  53  84 CALM      30.05R
QUAKERTOWN*    SUNNY     55  54  94 CALM      30.07S
READING        CLEAR     57  54  89 NW6       30.07R
LANCASTER      CLEAR     57  54  89 W5        30.08R
COATESVILLE    SUNNY     55  55 100 W7        30.08R
POTTSTOWN      CLEAR     56  54  93 CALM      30.07S
BLUE BELL      CLEAR     55  55 100 CALM      30.05S
DOYLESTOWN     CLEAR     57  54  89 CALM      30.05R
WILLOW GROVE   NOT AVBL
NORTH PHILA    CLEAR     63  52  67 NW7       30.06S
PHILADELPHIA   CLEAR     64  54  69 N7        30.06R
$$



USA.gov is the U.S. government's official web portal to all federal, state and local government web resources and services.